User: anonymous
Location: Unspecified
(0.0000°N, 0.0000°E)
Time: 04:42:15
(UTC+02:00)
Language:

ARIANE 5 R/B - Orbit

View from above orbital plane
View from above orbital plane
View from above satellite
View from above satellite

Ground track
Ground track

The orbit data is extracted from the following two-line orbital elements,

1 28787U 05028B   14112.06364954 -.00000026  00000-0  15681-2 0  4620
2 28787 006.8720 117.9980 7155425 053.0203 356.9968 02.26530050 71999
Epoch (UTC): 22 April 2014 01:31:39
Eccentricity: 0.7155425
inclination: 6.8720°
perigee height: 588 km
apogee height: 35635 km
right ascension of ascending node: 117.9980°
argument of perigee: 53.0203°
revolutions per day: 2.26530050
mean anomaly at epoch: 356.9968°
orbit number at epoch: 7199

The dashed part of the orbit path shows where the satellite is in the earth's shadow,  

DLR